Year,Month,Day,Hour,Minute,Value (Times are PST for windspeed in km/hr)
2015,10,08,00,00,6.60
2015,10,08,00,01,10.30
2015,10,08,00,02,7.50
2015,10,08,00,03,7.00
2015,10,08,00,04,6.00
2015,10,08,00,05,8.20
2015,10,08,00,06,10.90
2015,10,08,00,07,8.00
2015,10,08,00,08,10.20
2015,10,08,00,09,8.00
2015,10,08,00,10,4.60
2015,10,08,00,11,6.70
2015,10,08,00,12,8.40
2015,10,08,00,13,13.10
2015,10,08,00,14,13.40
2015,10,08,00,15,4.60
2015,10,08,00,16,9.30
2015,10,08,00,17,10.30
2015,10,08,00,18,5.80
2015,10,08,00,19,4.40
2015,10,08,00,20,9.50
2015,10,08,00,21,7.70
2015,10,08,00,22,5.60
2015,10,08,00,23,8.90
2015,10,08,00,24,5.80
2015,10,08,00,25,4.20
2015,10,08,00,26,6.90
2015,10,08,00,27,13.70
2015,10,08,00,28,10.00
2015,10,08,00,29,6.20
2015,10,08,00,30,7.40
2015,10,08,00,31,6.00
2015,10,08,00,32,6.60
2015,10,08,00,33,6.80
2015,10,08,00,34,3.90
2015,10,08,00,35,7.00
2015,10,08,00,36,5.60
2015,10,08,00,37,5.60
2015,10,08,00,38,6.80
2015,10,08,00,39,3.80
2015,10,08,00,40,12.90
2015,10,08,00,41,10.00
2015,10,08,00,42,9.50
2015,10,08,00,43,13.50
2015,10,08,00,44,7.60
2015,10,08,00,45,9.30
2015,10,08,00,46,5.50
2015,10,08,00,47,9.50
2015,10,08,00,48,11.30
2015,10,08,00,49,4.00
2015,10,08,00,50,6.40
2015,10,08,00,51,8.00
2015,10,08,00,52,1.80
2015,10,08,00,53,3.20
2015,10,08,00,54,3.60
2015,10,08,00,55,8.80
2015,10,08,00,56,6.90
2015,10,08,00,57,4.80
2015,10,08,00,58,3.30
2015,10,08,00,59,2.70
2015,10,08,01,00,10.00
2015,10,08,01,01,6.40
2015,10,08,01,02,4.00
2015,10,08,01,03,4.60
2015,10,08,01,04,2.10
2015,10,08,01,05,4.30
2015,10,08,01,06,4.90
2015,10,08,01,07,4.70
2015,10,08,01,08,7.50
2015,10,08,01,09,7.40
2015,10,08,01,10,6.40
2015,10,08,01,11,6.10
2015,10,08,01,12,6.10
2015,10,08,01,13,5.20
2015,10,08,01,14,1.60
2015,10,08,01,15,2.10
2015,10,08,01,16,6.60
2015,10,08,01,17,5.10
2015,10,08,01,18,6.60
2015,10,08,01,19,5.60
2015,10,08,01,20,5.50
2015,10,08,01,21,9.30
2015,10,08,01,22,7.80
2015,10,08,01,23,6.00
2015,10,08,01,24,3.20
2015,10,08,01,25,9.20
2015,10,08,01,26,7.00
2015,10,08,01,27,4.50
2015,10,08,01,28,3.20
2015,10,08,01,29,4.20
2015,10,08,01,30,7.00
2015,10,08,01,31,7.50
2015,10,08,01,32,4.80
2015,10,08,01,33,5.40
2015,10,08,01,34,7.00
2015,10,08,01,35,4.00
2015,10,08,01,36,3.90
2015,10,08,01,37,4.40
2015,10,08,01,38,5.70
2015,10,08,01,39,6.30
2015,10,08,01,40,3.80
2015,10,08,01,41,3.20
2015,10,08,01,42,3.40
2015,10,08,01,43,3.70
2015,10,08,01,44,10.00
2015,10,08,01,45,7.60
2015,10,08,01,46,4.20
2015,10,08,01,47,7.40
2015,10,08,01,48,5.40
2015,10,08,01,49,3.20
2015,10,08,01,50,3.70
2015,10,08,01,51,3.30
2015,10,08,01,52,6.90
2015,10,08,01,53,5.40
2015,10,08,01,54,5.30
2015,10,08,01,55,7.50
2015,10,08,01,56,8.20
2015,10,08,01,57,11.30
2015,10,08,01,58,6.30
2015,10,08,01,59,4.50
2015,10,08,02,00,6.70
2015,10,08,02,01,2.70
2015,10,08,02,02,1.40
2015,10,08,02,03,1.50
2015,10,08,02,04,6.00
2015,10,08,02,05,3.80
2015,10,08,02,06,1.80
2015,10,08,02,07,5.20
2015,10,08,02,08,7.80
2015,10,08,02,09,7.10
2015,10,08,02,10,7.80
2015,10,08,02,11,5.60
2015,10,08,02,12,9.20
2015,10,08,02,13,4.70
2015,10,08,02,14,6.60
2015,10,08,02,15,8.90
2015,10,08,02,16,7.30
2015,10,08,02,17,4.90
2015,10,08,02,18,11.20
2015,10,08,02,19,7.10
2015,10,08,02,20,2.90
2015,10,08,02,21,5.20
2015,10,08,02,22,8.80
2015,10,08,02,23,7.00
2015,10,08,02,24,9.50
2015,10,08,02,25,10.20
2015,10,08,02,26,8.50
2015,10,08,02,27,9.70
2015,10,08,02,28,6.30
2015,10,08,02,29,10.00
2015,10,08,02,30,5.40
2015,10,08,02,31,3.00
2015,10,08,02,32,3.50
2015,10,08,02,33,8.20
2015,10,08,02,34,8.10
2015,10,08,02,35,8.80
2015,10,08,02,36,5.40
2015,10,08,02,37,6.90
2015,10,08,02,38,7.10
2015,10,08,02,39,9.10
2015,10,08,02,40,6.60
2015,10,08,02,41,5.10
2015,10,08,02,42,4.50
2015,10,08,02,43,3.90
2015,10,08,02,44,5.20
2015,10,08,02,45,5.40
2015,10,08,02,46,5.50
2015,10,08,02,47,5.50
2015,10,08,02,48,5.80
2015,10,08,02,49,5.80
2015,10,08,02,50,5.90
2015,10,08,02,51,3.10
2015,10,08,02,52,1.30
2015,10,08,02,53,2.80
2015,10,08,02,54,3.20
2015,10,08,02,55,2.00
2015,10,08,02,56,5.00
2015,10,08,02,57,4.60
2015,10,08,02,58,8.10
2015,10,08,02,59,4.80
2015,10,08,03,00,9.70
2015,10,08,03,01,9.40
2015,10,08,03,02,7.10
2015,10,08,03,03,5.70
2015,10,08,03,04,3.80
2015,10,08,03,05,8.50
2015,10,08,03,06,9.40
2015,10,08,03,07,7.60
2015,10,08,03,08,6.70
2015,10,08,03,09,6.60
2015,10,08,03,10,2.60
2015,10,08,03,11,8.30
2015,10,08,03,12,11.90
2015,10,08,03,13,9.70
2015,10,08,03,14,8.60
2015,10,08,03,15,8.20
2015,10,08,03,16,11.30
2015,10,08,03,17,5.90
2015,10,08,03,18,10.30
2015,10,08,03,19,6.20
2015,10,08,03,20,9.20
2015,10,08,03,21,6.60
2015,10,08,03,22,9.50
2015,10,08,03,23,9.70
2015,10,08,03,24,9.10
2015,10,08,03,25,3.20
2015,10,08,03,26,3.80
2015,10,08,03,27,6.40
2015,10,08,03,28,3.40
2015,10,08,03,29,6.80
2015,10,08,03,30,3.20
2015,10,08,03,31,4.40
2015,10,08,03,32,6.20
2015,10,08,03,33,4.40
2015,10,08,03,34,4.60
2015,10,08,03,35,3.90
2015,10,08,03,36,4.20
2015,10,08,03,37,3.60
2015,10,08,03,38,7.70
2015,10,08,03,39,8.20
2015,10,08,03,40,12.20
2015,10,08,03,41,8.60
2015,10,08,03,42,3.20
2015,10,08,03,43,4.80
2015,10,08,03,44,3.60
2015,10,08,03,45,5.30
2015,10,08,03,46,3.50
2015,10,08,03,47,4.20
2015,10,08,03,48,10.10
2015,10,08,03,49,6.20
2015,10,08,03,50,4.30
2015,10,08,03,51,2.60
2015,10,08,03,52,4.40
2015,10,08,03,53,2.30
2015,10,08,03,54,4.90
2015,10,08,03,55,4.00
2015,10,08,03,56,4.80
2015,10,08,03,57,6.30
2015,10,08,03,58,6.10
2015,10,08,03,59,7.80
2015,10,08,04,00,10.50
2015,10,08,04,01,9.40
2015,10,08,04,02,5.90
2015,10,08,04,03,11.00
2015,10,08,04,04,9.70
2015,10,08,04,05,8.50
2015,10,08,04,06,4.70
2015,10,08,04,07,5.00
2015,10,08,04,08,7.40
2015,10,08,04,09,6.80
2015,10,08,04,10,6.60
2015,10,08,04,11,8.70
2015,10,08,04,12,8.30
2015,10,08,04,13,6.10
2015,10,08,04,14,6.80
2015,10,08,04,15,9.60
2015,10,08,04,16,6.90
2015,10,08,04,17,6.10
2015,10,08,04,18,9.70
2015,10,08,04,19,7.00
2015,10,08,04,20,5.40
2015,10,08,04,21,9.40
2015,10,08,04,22,5.60
2015,10,08,04,23,7.10
2015,10,08,04,24,8.40
2015,10,08,04,25,8.50
2015,10,08,04,26,8.90
2015,10,08,04,27,7.40
2015,10,08,04,28,8.70
2015,10,08,04,29,5.80
2015,10,08,04,30,5.90
2015,10,08,04,31,7.60
2015,10,08,04,32,3.50
2015,10,08,04,33,2.60
2015,10,08,04,34,5.40
2015,10,08,04,35,3.90
2015,10,08,04,36,3.50
2015,10,08,04,37,3.20
2015,10,08,04,38,7.70
2015,10,08,04,39,5.40
2015,10,08,04,40,4.90
2015,10,08,04,41,4.30
2015,10,08,04,42,4.30
2015,10,08,04,43,4.40
2015,10,08,04,44,6.00
2015,10,08,04,45,6.10
2015,10,08,04,46,4.90
2015,10,08,04,47,4.80
2015,10,08,04,48,6.30
2015,10,08,04,49,6.60
2015,10,08,04,50,5.20
2015,10,08,04,51,7.10
2015,10,08,04,52,7.70
2015,10,08,04,53,3.70
2015,10,08,04,54,4.50
2015,10,08,04,55,4.60
2015,10,08,04,56,7.70
2015,10,08,04,57,5.80
2015,10,08,04,58,3.70
2015,10,08,04,59,3.90
2015,10,08,05,00,3.20
2015,10,08,05,01,7.30
2015,10,08,05,02,2.60
2015,10,08,05,03,2.10
2015,10,08,05,04,3.40
2015,10,08,05,05,2.50
2015,10,08,05,06,4.20
2015,10,08,05,07,4.10
2015,10,08,05,08,3.40
2015,10,08,05,09,3.50
2015,10,08,05,10,3.60
2015,10,08,05,11,5.50
2015,10,08,05,12,4.80
2015,10,08,05,13,6.30
2015,10,08,05,14,6.40
2015,10,08,05,15,9.10
2015,10,08,05,16,4.10
2015,10,08,05,17,5.90
2015,10,08,05,18,13.80
2015,10,08,05,19,7.10
2015,10,08,05,20,5.10
2015,10,08,05,21,4.20
2015,10,08,05,22,6.20
2015,10,08,05,23,10.40
2015,10,08,05,24,7.10
2015,10,08,05,25,10.20
2015,10,08,05,26,6.80
2015,10,08,05,27,5.40
2015,10,08,05,28,7.60
2015,10,08,05,29,5.70
2015,10,08,05,30,6.80
2015,10,08,05,31,5.80
2015,10,08,05,32,8.00
2015,10,08,05,33,8.90
2015,10,08,05,34,7.10
2015,10,08,05,35,5.60
2015,10,08,05,36,5.20
2015,10,08,05,37,5.70
2015,10,08,05,38,3.30
2015,10,08,05,39,4.00
2015,10,08,05,40,7.40
2015,10,08,05,41,9.70
2015,10,08,05,42,7.90
2015,10,08,05,43,9.80
2015,10,08,05,44,13.00
2015,10,08,05,45,5.40
2015,10,08,05,46,7.80
2015,10,08,05,47,6.60
2015,10,08,05,48,5.20
2015,10,08,05,49,5.60
2015,10,08,05,50,2.00
2015,10,08,05,51,1.40
2015,10,08,05,52,4.40
2015,10,08,05,53,5.10
2015,10,08,05,54,4.90
2015,10,08,05,55,6.90
2015,10,08,05,56,2.40
2015,10,08,05,57,4.50
2015,10,08,05,58,4.30
2015,10,08,05,59,3.40
2015,10,08,06,00,2.90
2015,10,08,06,01,7.30
2015,10,08,06,02,4.10
2015,10,08,06,03,3.00
2015,10,08,06,04,3.00
2015,10,08,06,05,3.50
2015,10,08,06,06,7.50
2015,10,08,06,07,6.30
2015,10,08,06,08,7.60
2015,10,08,06,09,10.60
2015,10,08,06,10,14.40
2015,10,08,06,11,10.20
2015,10,08,06,12,8.30
2015,10,08,06,13,7.60
2015,10,08,06,14,7.40
2015,10,08,06,15,9.80
2015,10,08,06,16,6.00
2015,10,08,06,17,7.60
2015,10,08,06,18,8.90
2015,10,08,06,19,13.70
2015,10,08,06,20,8.00
2015,10,08,06,21,4.80
2015,10,08,06,22,5.70
2015,10,08,06,23,8.60
2015,10,08,06,24,8.60
2015,10,08,06,25,8.10
2015,10,08,06,26,7.40
2015,10,08,06,27,7.00
2015,10,08,06,28,4.10
2015,10,08,06,29,3.60
2015,10,08,06,30,3.90
2015,10,08,06,31,4.70
2015,10,08,06,32,4.90
2015,10,08,06,33,3.80
2015,10,08,06,34,3.60
2015,10,08,06,35,2.70
2015,10,08,06,36,3.40
2015,10,08,06,37,2.80
2015,10,08,06,38,2.20
2015,10,08,06,39,2.80
2015,10,08,06,40,2.90
2015,10,08,06,41,4.10
2015,10,08,06,42,4.50
2015,10,08,06,43,2.50
2015,10,08,06,44,2.60
2015,10,08,06,45,3.60
2015,10,08,06,46,4.20
2015,10,08,06,47,4.30
2015,10,08,06,48,3.00
2015,10,08,06,49,6.90
2015,10,08,06,50,3.60
2015,10,08,06,51,6.10
2015,10,08,06,52,5.10
2015,10,08,06,53,3.20
2015,10,08,06,54,4.30
2015,10,08,06,55,4.40
2015,10,08,06,56,3.90
2015,10,08,06,57,2.30
2015,10,08,06,58,1.00
2015,10,08,06,59,1.40
2015,10,08,07,00,2.40
2015,10,08,07,01,2.00
2015,10,08,07,02,1.50
2015,10,08,07,03,2.70
2015,10,08,07,04,1.10
2015,10,08,07,05,1.90
2015,10,08,07,06,4.00
2015,10,08,07,07,3.00
2015,10,08,07,08,4.00
2015,10,08,07,09,6.90
2015,10,08,07,10,5.50
2015,10,08,07,11,4.60
2015,10,08,07,12,4.20
2015,10,08,07,13,4.60
2015,10,08,07,14,3.90
2015,10,08,07,15,4.30
2015,10,08,07,16,5.80
2015,10,08,07,17,4.90
2015,10,08,07,18,3.60
2015,10,08,07,19,2.40
2015,10,08,07,20,3.40
2015,10,08,07,21,2.30
2015,10,08,07,22,2.00
2015,10,08,07,23,3.50
2015,10,08,07,24,4.90
2015,10,08,07,25,2.90
2015,10,08,07,26,7.80
2015,10,08,07,27,5.60
2015,10,08,07,28,4.60
2015,10,08,07,29,4.60
2015,10,08,07,30,8.20
2015,10,08,07,31,5.30
2015,10,08,07,32,4.70
2015,10,08,07,33,6.90
2015,10,08,07,34,6.60
2015,10,08,07,35,5.20
2015,10,08,07,36,4.30
2015,10,08,07,37,6.90
2015,10,08,07,38,8.10
2015,10,08,07,39,5.20
2015,10,08,07,40,5.80
2015,10,08,07,41,6.70
2015,10,08,07,42,5.40
2015,10,08,07,43,5.10
2015,10,08,07,44,6.10
2015,10,08,07,45,5.00
2015,10,08,07,46,3.90
2015,10,08,07,47,7.20
2015,10,08,07,48,2.10
2015,10,08,07,49,5.40
2015,10,08,07,50,3.60
2015,10,08,07,51,5.10
2015,10,08,07,52,3.60
2015,10,08,07,53,3.90
2015,10,08,07,54,3.60
2015,10,08,07,55,4.60
2015,10,08,07,56,7.20
2015,10,08,07,57,4.40
2015,10,08,07,58,4.00
2015,10,08,07,59,6.30
2015,10,08,08,00,3.00
2015,10,08,08,01,5.00
2015,10,08,08,02,4.40
2015,10,08,08,03,4.50
2015,10,08,08,04,4.90
2015,10,08,08,05,5.10
2015,10,08,08,06,5.30
2015,10,08,08,07,5.10
2015,10,08,08,08,6.00
2015,10,08,08,09,5.10
2015,10,08,08,10,3.70
2015,10,08,08,11,7.00
2015,10,08,08,12,3.20
2015,10,08,08,13,2.30
2015,10,08,08,14,5.70
2015,10,08,08,15,3.00
2015,10,08,08,16,4.00
2015,10,08,08,17,4.60
2015,10,08,08,18,3.20
2015,10,08,08,19,3.70
2015,10,08,08,20,4.00
2015,10,08,08,21,3.10
2015,10,08,08,22,2.50
2015,10,08,08,23,0.90
2015,10,08,08,24,2.00
2015,10,08,08,25,2.00
2015,10,08,08,26,2.70
2015,10,08,08,27,2.70
2015,10,08,08,28,2.40
2015,10,08,08,29,3.00
2015,10,08,08,30,0.90
2015,10,08,08,31,1.00
2015,10,08,08,32,2.00
2015,10,08,08,33,1.10
2015,10,08,08,34,0.30
2015,10,08,08,35,0.70
2015,10,08,08,36,0.80
2015,10,08,08,37,0.70
2015,10,08,08,38,1.00
2015,10,08,08,39,0.50
2015,10,08,08,40,0.90
2015,10,08,08,41,2.40
2015,10,08,08,42,3.00
2015,10,08,08,43,4.00
2015,10,08,08,44,3.00
2015,10,08,08,45,3.00
2015,10,08,08,46,4.00
2015,10,08,08,47,5.00
2015,10,08,08,48,3.90
2015,10,08,08,49,3.90
2015,10,08,08,50,3.10
2015,10,08,08,51,3.00
2015,10,08,08,52,2.30
2015,10,08,08,53,4.00
2015,10,08,08,54,3.50
2015,10,08,08,55,4.00
2015,10,08,08,56,1.80
2015,10,08,08,57,2.80
2015,10,08,08,58,2.90
2015,10,08,08,59,3.00
2015,10,08,09,00,2.70
2015,10,08,09,01,5.50
2015,10,08,09,02,2.60
2015,10,08,09,03,4.80
2015,10,08,09,04,4.60
2015,10,08,09,05,5.60
2015,10,08,09,06,2.90
2015,10,08,09,07,4.40
2015,10,08,09,08,3.50
2015,10,08,09,09,4.10
2015,10,08,09,10,6.10
2015,10,08,09,11,4.00
2015,10,08,09,12,6.00
2015,10,08,09,13,9.70
2015,10,08,09,14,9.80
2015,10,08,09,15,6.70
2015,10,08,09,16,4.20
2015,10,08,09,17,7.10
2015,10,08,09,18,4.40
2015,10,08,09,19,5.90
2015,10,08,09,20,7.60
2015,10,08,09,21,5.40
2015,10,08,09,22,7.10
2015,10,08,09,23,5.20
2015,10,08,09,24,6.00
2015,10,08,09,25,3.50
2015,10,08,09,26,3.00
2015,10,08,09,27,7.40
2015,10,08,09,28,4.40
2015,10,08,09,29,3.00
2015,10,08,09,30,4.90
2015,10,08,09,31,3.40
2015,10,08,09,32,3.20
2015,10,08,09,33,5.20
2015,10,08,09,34,3.50
2015,10,08,09,35,2.60
2015,10,08,09,36,6.30
2015,10,08,09,37,3.20
2015,10,08,09,38,4.10
2015,10,08,09,39,4.10
2015,10,08,09,40,2.30
2015,10,08,09,41,2.20
2015,10,08,09,42,4.50
2015,10,08,09,43,5.40
2015,10,08,09,44,5.30
2015,10,08,09,45,5.90
2015,10,08,09,46,4.20
2015,10,08,09,47,4.20
2015,10,08,09,48,4.30
2015,10,08,09,49,3.90
2015,10,08,09,50,5.20
2015,10,08,09,51,4.30
2015,10,08,09,52,2.90
2015,10,08,09,53,3.80
2015,10,08,09,54,3.90
2015,10,08,09,55,6.20
2015,10,08,09,56,2.50
2015,10,08,09,57,1.50
2015,10,08,09,58,2.60
2015,10,08,09,59,3.60
2015,10,08,10,00,3.60
2015,10,08,10,01,3.70
2015,10,08,10,02,2.10
2015,10,08,10,03,3.30
2015,10,08,10,04,3.30
2015,10,08,10,05,3.50
2015,10,08,10,06,4.80
2015,10,08,10,07,4.30
2015,10,08,10,08,3.60
2015,10,08,10,09,2.50
2015,10,08,10,10,3.20
2015,10,08,10,11,3.60
2015,10,08,10,12,1.70
2015,10,08,10,13,1.10
2015,10,08,10,14,0.80
2015,10,08,10,15,3.30
2015,10,08,10,16,3.90
2015,10,08,10,17,2.80
2015,10,08,10,18,5.40
2015,10,08,10,19,1.30
2015,10,08,10,20,2.30
2015,10,08,10,21,2.40
2015,10,08,10,22,2.60
2015,10,08,10,23,2.30
2015,10,08,10,24,1.40
2015,10,08,10,25,2.00
2015,10,08,10,26,2.70
2015,10,08,10,27,3.00
2015,10,08,10,28,3.10
2015,10,08,10,29,1.40
2015,10,08,10,30,0.10
2015,10,08,10,31,0.40
2015,10,08,10,32,3.10
2015,10,08,10,33,1.50
2015,10,08,10,34,1.70
2015,10,08,10,35,1.90
2015,10,08,10,36,2.40
2015,10,08,10,37,3.80
2015,10,08,10,38,2.10
2015,10,08,10,39,1.10
2015,10,08,10,40,0.40
2015,10,08,10,41,1.30
2015,10,08,10,42,2.10
2015,10,08,10,43,1.30
2015,10,08,10,44,0.70
2015,10,08,10,45,1.90
2015,10,08,10,46,1.40
2015,10,08,10,47,0.00
2015,10,08,10,48,0.00
2015,10,08,10,49,0.00
2015,10,08,10,50,0.00
2015,10,08,10,51,0.00
2015,10,08,10,52,0.00
2015,10,08,10,53,1.50
2015,10,08,10,54,2.20
2015,10,08,10,55,1.90
2015,10,08,10,56,1.70
2015,10,08,10,57,2.20
2015,10,08,10,58,2.40
2015,10,08,10,59,1.70
2015,10,08,11,00,1.60
2015,10,08,11,01,0.60
2015,10,08,11,02,1.50
2015,10,08,11,03,1.90
2015,10,08,11,04,0.20
2015,10,08,11,05,0.10
2015,10,08,11,06,0.00
2015,10,08,11,07,0.00
2015,10,08,11,08,1.30
2015,10,08,11,09,2.60
2015,10,08,11,10,1.40
2015,10,08,11,11,1.90
2015,10,08,11,12,2.10
2015,10,08,11,13,0.90
2015,10,08,11,14,0.20
2015,10,08,11,15,1.20
2015,10,08,11,16,1.50
2015,10,08,11,17,1.10
2015,10,08,11,18,1.20
2015,10,08,11,19,2.40
2015,10,08,11,20,2.50
2015,10,08,11,21,3.60
2015,10,08,11,22,2.60
2015,10,08,11,23,3.20
2015,10,08,11,24,2.70
2015,10,08,11,25,1.60
2015,10,08,11,26,0.50
2015,10,08,11,27,0.80
2015,10,08,11,28,2.70
2015,10,08,11,29,2.80
2015,10,08,11,30,4.20
2015,10,08,11,31,4.30
2015,10,08,11,32,4.70
2015,10,08,11,33,4.30
2015,10,08,11,34,3.60
2015,10,08,11,35,2.80
2015,10,08,11,36,3.30
2015,10,08,11,37,4.60
2015,10,08,11,38,2.50
2015,10,08,11,39,1.70
2015,10,08,11,40,1.90
2015,10,08,11,41,3.50
2015,10,08,11,42,3.10
2015,10,08,11,43,4.40
2015,10,08,11,44,2.80
2015,10,08,11,45,1.90
2015,10,08,11,46,1.10
2015,10,08,11,47,2.20
2015,10,08,11,48,5.10
2015,10,08,11,49,4.60
2015,10,08,11,50,1.30
2015,10,08,11,51,1.40
2015,10,08,11,52,3.00
2015,10,08,11,53,1.70
2015,10,08,11,54,0.00
2015,10,08,11,55,0.10
2015,10,08,11,56,1.30
2015,10,08,11,57,1.10
2015,10,08,11,58,0.10
2015,10,08,11,59,0.20
2015,10,08,12,00,2.50
2015,10,08,12,01,1.00
2015,10,08,12,02,0.10
2015,10,08,12,03,0.70
2015,10,08,12,04,1.30
2015,10,08,12,05,2.30
2015,10,08,12,06,0.80
2015,10,08,12,07,0.70
2015,10,08,12,08,1.60
2015,10,08,12,09,1.50
2015,10,08,12,10,1.30
2015,10,08,12,11,0.70
2015,10,08,12,12,1.00
2015,10,08,12,13,2.70
2015,10,08,12,14,2.80
2015,10,08,12,15,2.30
2015,10,08,12,16,1.40
2015,10,08,12,17,3.70
2015,10,08,12,18,4.10
2015,10,08,12,19,2.90
2015,10,08,12,20,1.40
2015,10,08,12,21,0.20
2015,10,08,12,22,1.60
2015,10,08,12,23,3.50
2015,10,08,12,24,3.30
2015,10,08,12,25,3.00
2015,10,08,12,26,3.40
2015,10,08,12,27,3.10
2015,10,08,12,28,4.60
2015,10,08,12,29,4.80
2015,10,08,12,30,4.80
2015,10,08,12,31,3.50
2015,10,08,12,32,3.40
2015,10,08,12,33,4.30
2015,10,08,12,34,5.60
2015,10,08,12,35,6.50
2015,10,08,12,36,8.30
2015,10,08,12,37,4.00
2015,10,08,12,38,5.50
2015,10,08,12,39,5.70
2015,10,08,12,40,6.00
2015,10,08,12,41,8.50
2015,10,08,12,42,6.50
2015,10,08,12,43,6.10
2015,10,08,12,44,6.60
2015,10,08,12,45,7.30
2015,10,08,12,46,4.80
2015,10,08,12,47,6.30
2015,10,08,12,48,6.00
2015,10,08,12,49,6.20
2015,10,08,12,50,4.50
2015,10,08,12,51,3.30
2015,10,08,12,52,1.20
2015,10,08,12,53,4.10
2015,10,08,12,54,1.80
2015,10,08,12,55,1.50
2015,10,08,12,56,3.50
2015,10,08,12,57,3.30
2015,10,08,12,58,4.20
2015,10,08,12,59,3.50
2015,10,08,13,00,3.90
2015,10,08,13,01,6.00
2015,10,08,13,02,4.50
2015,10,08,13,03,1.90
2015,10,08,13,04,3.20
2015,10,08,13,05,2.30
2015,10,08,13,06,0.90
2015,10,08,13,07,2.80
2015,10,08,13,08,2.30
2015,10,08,13,09,1.40
2015,10,08,13,10,1.90
2015,10,08,13,11,4.20
2015,10,08,13,12,2.90
2015,10,08,13,13,3.40
2015,10,08,13,14,1.70
2015,10,08,13,15,4.30
2015,10,08,13,16,5.70
2015,10,08,13,17,2.70
2015,10,08,13,18,2.20
2015,10,08,13,19,7.50
2015,10,08,13,20,3.90
2015,10,08,13,21,5.20
2015,10,08,13,22,4.80
2015,10,08,13,23,6.40
2015,10,08,13,24,6.60
2015,10,08,13,25,3.90
2015,10,08,13,26,2.00
2015,10,08,13,27,4.20
2015,10,08,13,28,2.70
2015,10,08,13,29,6.70
2015,10,08,13,30,5.50
2015,10,08,13,31,5.50
2015,10,08,13,32,4.50
2015,10,08,13,33,6.00
2015,10,08,13,34,5.90
2015,10,08,13,35,9.00
2015,10,08,13,36,9.00
2015,10,08,13,37,8.20
2015,10,08,13,38,3.90
2015,10,08,13,39,4.50
2015,10,08,13,40,6.00
2015,10,08,13,41,5.20
2015,10,08,13,42,4.90
2015,10,08,13,43,3.30
2015,10,08,13,44,3.60
2015,10,08,13,45,6.60
2015,10,08,13,46,5.80
2015,10,08,13,47,3.30
2015,10,08,13,48,2.60
2015,10,08,13,49,5.00
2015,10,08,13,50,2.70
2015,10,08,13,51,3.30
2015,10,08,13,52,5.70
2015,10,08,13,53,5.70
2015,10,08,13,54,6.10
2015,10,08,13,55,2.90
2015,10,08,13,56,3.30
2015,10,08,13,57,6.00
2015,10,08,13,58,5.00
2015,10,08,13,59,1.90
2015,10,08,14,00,4.10
2015,10,08,14,01,4.60
2015,10,08,14,02,4.80
2015,10,08,14,03,1.60
2015,10,08,14,04,1.90
2015,10,08,14,05,4.60
2015,10,08,14,06,4.10
2015,10,08,14,07,6.10
2015,10,08,14,08,7.50
2015,10,08,14,09,4.90
2015,10,08,14,10,3.30
2015,10,08,14,11,4.30
2015,10,08,14,12,3.00
2015,10,08,14,13,5.30
2015,10,08,14,14,4.70
2015,10,08,14,15,4.20
2015,10,08,14,16,4.50
2015,10,08,14,17,6.60
2015,10,08,14,18,5.10
2015,10,08,14,19,5.30
2015,10,08,14,20,5.10
2015,10,08,14,21,7.60
2015,10,08,14,22,5.50
2015,10,08,14,23,8.30
2015,10,08,14,24,5.80
2015,10,08,14,25,5.90
2015,10,08,14,26,6.60
2015,10,08,14,27,8.20
2015,10,08,14,28,5.90
2015,10,08,14,29,5.00
2015,10,08,14,30,5.10
2015,10,08,14,31,2.40
2015,10,08,14,32,1.70
2015,10,08,14,33,3.10
2015,10,08,14,34,6.60
2015,10,08,14,35,4.50
2015,10,08,14,36,3.60
2015,10,08,14,37,2.40
2015,10,08,14,38,3.90
2015,10,08,14,39,4.80
2015,10,08,14,40,4.60
2015,10,08,14,41,2.30
2015,10,08,14,42,3.80
2015,10,08,14,43,5.30
2015,10,08,14,44,6.30
2015,10,08,14,45,3.30
2015,10,08,14,46,6.90
2015,10,08,14,47,4.10
2015,10,08,14,48,3.90
2015,10,08,14,49,2.10
2015,10,08,14,50,2.60
2015,10,08,14,51,4.10
2015,10,08,14,52,5.80
2015,10,08,14,53,4.20
2015,10,08,14,54,5.00
2015,10,08,14,55,5.40
2015,10,08,14,56,2.90
2015,10,08,14,57,2.70
2015,10,08,14,58,3.90
2015,10,08,14,59,4.50
2015,10,08,15,00,3.90
2015,10,08,15,01,4.40
2015,10,08,15,02,4.30
2015,10,08,15,03,4.70
2015,10,08,15,04,3.50
2015,10,08,15,05,2.90
2015,10,08,15,06,5.40
2015,10,08,15,07,3.50
2015,10,08,15,08,4.30
2015,10,08,15,09,5.00
2015,10,08,15,10,4.80
2015,10,08,15,11,2.60
2015,10,08,15,12,4.10
2015,10,08,15,13,4.70
2015,10,08,15,14,4.50
2015,10,08,15,15,3.60
2015,10,08,15,16,3.40
2015,10,08,15,17,3.30
2015,10,08,15,18,4.10
2015,10,08,15,19,3.50
2015,10,08,15,20,3.70
2015,10,08,15,21,3.40
2015,10,08,15,22,4.10
2015,10,08,15,23,4.00
2015,10,08,15,24,2.10
2015,10,08,15,25,3.30
2015,10,08,15,26,3.50
2015,10,08,15,27,2.00
2015,10,08,15,28,2.40
2015,10,08,15,29,2.40
2015,10,08,15,30,2.00
2015,10,08,15,31,3.00
2015,10,08,15,32,2.10
2015,10,08,15,33,1.30
2015,10,08,15,34,1.60
2015,10,08,15,35,0.80
2015,10,08,15,36,2.40
2015,10,08,15,37,2.00
2015,10,08,15,38,1.10
2015,10,08,15,39,0.80
2015,10,08,15,40,1.60
2015,10,08,15,41,2.10
2015,10,08,15,42,4.00
2015,10,08,15,43,3.50
2015,10,08,15,44,2.80
2015,10,08,15,45,2.90
2015,10,08,15,46,2.70
2015,10,08,15,47,2.30
2015,10,08,15,48,5.10
2015,10,08,15,49,4.10
2015,10,08,15,50,2.90
2015,10,08,15,51,3.00
2015,10,08,15,52,5.80
2015,10,08,15,53,3.50
2015,10,08,15,54,1.40
2015,10,08,15,55,3.60
2015,10,08,15,56,5.20
2015,10,08,15,57,2.90
2015,10,08,15,58,3.30
2015,10,08,15,59,3.60
2015,10,08,16,00,3.40
2015,10,08,16,01,4.40
2015,10,08,16,02,2.30
2015,10,08,16,03,3.50
2015,10,08,16,04,2.10
2015,10,08,16,05,2.40
2015,10,08,16,06,2.80
2015,10,08,16,07,4.70
2015,10,08,16,08,4.40
2015,10,08,16,09,3.40
2015,10,08,16,10,5.00
2015,10,08,16,11,2.60
2015,10,08,16,12,5.30
2015,10,08,16,13,5.70
2015,10,08,16,14,7.30
2015,10,08,16,15,5.20
2015,10,08,16,16,5.70
2015,10,08,16,17,7.00
2015,10,08,16,18,8.00
2015,10,08,16,19,4.60
2015,10,08,16,20,4.10
2015,10,08,16,21,2.90
2015,10,08,16,22,2.90
2015,10,08,16,23,5.50
2015,10,08,16,24,5.40
2015,10,08,16,25,6.20
2015,10,08,16,26,4.50
2015,10,08,16,27,3.50
2015,10,08,16,28,4.50
2015,10,08,16,29,5.50
2015,10,08,16,30,3.90
2015,10,08,16,31,3.40
2015,10,08,16,32,5.90
2015,10,08,16,33,6.80
2015,10,08,16,34,4.80
2015,10,08,16,35,5.40
2015,10,08,16,36,6.70
2015,10,08,16,37,4.00
2015,10,08,16,38,7.50
2015,10,08,16,39,6.10
2015,10,08,16,40,10.30
2015,10,08,16,41,6.00
2015,10,08,16,42,6.40
2015,10,08,16,43,7.00
2015,10,08,16,44,5.30
2015,10,08,16,45,7.00
2015,10,08,16,46,7.80
2015,10,08,16,47,10.30
2015,10,08,16,48,5.40
2015,10,08,16,49,7.00
2015,10,08,16,50,4.80
2015,10,08,16,51,8.70
2015,10,08,16,52,5.80
2015,10,08,16,53,3.90
2015,10,08,16,54,6.90
2015,10,08,16,55,3.50
2015,10,08,16,56,5.20
2015,10,08,16,57,5.90
2015,10,08,16,58,5.50
2015,10,08,16,59,2.90
2015,10,08,17,00,3.20
2015,10,08,17,01,8.60
2015,10,08,17,02,4.50
2015,10,08,17,03,5.10
2015,10,08,17,04,4.90
2015,10,08,17,05,6.60
2015,10,08,17,06,4.00
2015,10,08,17,07,6.90
2015,10,08,17,08,5.20
2015,10,08,17,09,4.50
2015,10,08,17,10,4.00
2015,10,08,17,11,6.00
2015,10,08,17,12,6.90
2015,10,08,17,13,7.00
2015,10,08,17,14,8.40
2015,10,08,17,15,7.70
2015,10,08,17,16,7.00
2015,10,08,17,17,8.40
2015,10,08,17,18,10.70
2015,10,08,17,19,8.50
2015,10,08,17,20,7.80
2015,10,08,17,21,5.80
2015,10,08,17,22,6.40
2015,10,08,17,23,6.40
2015,10,08,17,24,3.90
2015,10,08,17,25,3.40
2015,10,08,17,26,4.80
2015,10,08,17,27,6.00
2015,10,08,17,28,2.70
2015,10,08,17,29,5.70
2015,10,08,17,30,7.10
2015,10,08,17,31,7.20
2015,10,08,17,32,10.70
2015,10,08,17,33,6.10
2015,10,08,17,34,3.80
2015,10,08,17,35,2.60
2015,10,08,17,36,4.80
2015,10,08,17,37,5.30
2015,10,08,17,38,4.60
2015,10,08,17,39,3.30
2015,10,08,17,40,3.80
2015,10,08,17,41,4.20
2015,10,08,17,42,4.50
2015,10,08,17,43,4.30
2015,10,08,17,44,4.30
2015,10,08,17,45,3.30
2015,10,08,17,46,6.00
2015,10,08,17,47,4.50
2015,10,08,17,48,3.10
2015,10,08,17,49,2.60
2015,10,08,17,50,5.10
2015,10,08,17,51,5.40
2015,10,08,17,52,5.30
2015,10,08,17,53,3.90
2015,10,08,17,54,3.20
2015,10,08,17,55,3.30
2015,10,08,17,56,2.40
2015,10,08,17,57,5.00
2015,10,08,17,58,5.40
2015,10,08,17,59,2.60
2015,10,08,18,00,2.10
2015,10,08,18,01,3.80
2015,10,08,18,02,3.20
2015,10,08,18,03,1.80
2015,10,08,18,04,2.30